星链-3362 (STARLINK-3362 )

导读

STARLINK-3362是美国SpaceX星链(Starlink)项目中的低轨通信卫星,于北京时间2022年1月19日发射升空,属于星链卫星互联网星座的组成部分。它运行在近地轨道,旨在为全球尤其是偏远地区提供高速低延迟的宽带互联网服务,助力缩小数字鸿沟,同时也可为军事、航空等特殊场景提供通信支持,是SpaceX构建全球卫星互联网基础设施的重要单元。

Basic Information
目录编号:
51108
目录名称:
STARLINK-3362
国际标识:
2022-005E
轨道中心:
EARTH
卫星名称:
星链-3362
卫星全名:
星链-3362 (STARLINK-3362 )
卫星状态:
在轨 (已飞行1610 天)
发射日期:
2022-01-19 UTC
国别 :
美国 (US)
星等 :
--
Orbit Information
数据来源 国际轨道数据 AOE轨道数据
星历时间 2026-06-17T17:38:01+0800
11小时前
查看轨道信息
2026-06-15T02:00:00+0800
3天前
查看轨道信息
半长轴 6917.887km 6917.853km
偏心率 0.0001267 0.0002481
轨道倾角 53.160° 53.156°
近地点辐角 90.318° 51.519°
升交点赤经 201.400° 213.318°
平近点角 269.796° 298.789°
近地点 538.873km 537.999km
远地点 540.627km 541.433km
周期 95.438分钟 95.437分钟
每日圈数 15.088381 15.08849
Detailed Information
固有亮度:
5
最大亮度:
2.5
卫星平台:
Starlink v1.5
覆盖范围:
全球
运营商:
太空探索技术公司
运营商所在国:
美国
制造商(研发单位):
太空探索技术公司
制造商所在国:
美国
使用方式:
暂无
Satellite Introduction
星链(Starlink)计划是由太空探索技术公司(SpaceX)提出的一个巨型低轨卫星互联网星座项目,计划在2019年至2024年间在太空搭建由约1.2万颗卫星组成的“星链”网络,其中1584颗将部署在地球上空550千米处的近地轨道,并从2020年开始工作。该卫星仍在工作。
2D Orbit Map
3D Orbit Map
Orbit Altitude Analysis Chart
Orbit Inclination Analysis Chart
Orbit Comprehensive Analysis Chart
View Comprehensive Chart